Wind_Speed
20 22 23 25 27 29 31 32 34 36 37 37 37 37 37 37 38 36 36 36 36 37 37 36 36 35 33 32 31 31 32 33 33 34 35 36 35 35 33 33 31 30 29
20 22 23 25 27 29 31 32 34 35 36 36 36 36 37 37 38 38 37 37 37 38 38 38 37 36 35 34 32 31 31 31 33 34 35 36 36 34 33 32 32 31 29
20 22 24 26 29 30 32 33 34 35 36 37 37 37 38 38 39 39 39 38 39 40 41 40 40 39 37 36 34 32 32 32 32 34 35 36 35 34 34 33 31 30 29
22 24 26 28 30 31 33 33 34 35 37 38 39 39 40 40 40 41 41 41 41 41 41 42 42 42 40 38 37 35 35 34 33 33 34 35 35 33 33 33 32 30 29
24 25 27 28 30 32 33 35 35 36 37 39 40 41 41 41 42 42 42 41 41 42 42 42 42 43 43 41 40 39 38 37 36 35 35 35 37 37 35 32 31 30 29
24 26 27 29 30 32 34 35 37 37 39 40 41 42 41 41 41 41 41 41 41 42 42 41 41 41 42 42 42 41 40 40 39 38 37 36 36 37 37 35 32 31 30
26 27 28 30 32 34 35 36 37 38 40 40 41 41 41 40 40 40 41 41 41 41 42 41 40 40 40 41 42 43 43 43 42 41 40 39 37 36 37 36 35 33 32
27 29 30 32 33 34 36 37 38 39 40 40 40 40 40 40 40 40 41 41 41 41 41 42 42 41 41 42 42 43 44 44 44 44 44 42 41 40 38 38 37 36 34
28 30 31 33 34 36 37 38 39 39 40 40 39 40 40 40 40 40 41 41 41 41 42 43 44 44 45 45 45 45 45 46 47 47 47 45 44 43 41 40 40 38 37
30 31 32 34 36 37 38 39 40 40 40 40 40 40 40 40 40 40 41 41 42 42 43 45 46 48 49 49 49 50 49 49 50 50 50 49 47 46 44 42 42 41 40
31 32 34 35 37 38 40 41 41 41 41 40 40 40 40 40 40 41 42 42 43 44 46 47 49 50 52 53 54 55 55 54 54 54 53 53 52 50 48 46 44 43 43
32 34 35 37 38 40 41 42 42 42 42 42 42 41 41 40 40 41 42 43 44 46 48 50 52 53 55 57 59 60 60 60 59 58 57 57 56 55 52 50 48 46 45
33 35 36 38 39 41 42 43 44 44 43 43 43 42 41 41 42 43 44 45 47 49 50 52 54 56 58 60 61 62 63 63 62 62 61 61 60 59 57 54 52 49 48
35 37 38 40 41 42 43 44 44 44 44 44 43 43 42 42 43 45 46 47 48 50 51 53 54 56 58 59 60 61 62 63 62 62 63 63 63 62 61 59 57 54 51
37 39 41 42 42 43 44 45 45 45 45 44 44 43 42 43 44 45 46 48 49 51 52 53 53 54 54 55 56 58 59 60 61 61 62 63 64 64 64 63 61 59 56
39 40 42 42 43 43 44 45 46 46 45 45 44 43 43 44 45 46 47 48 50 50 51 51 50 49 49 49 50 52 53 55 56 57 58 60 63 65 65 64 63 62 60
40 41 42 43 44 44 45 46 46 46 46 45 45 44 44 44 45 46 48 49 49 49 48 47 47 46 45 44 44 45 47 49 50 51 53 56 58 62 64 65 64 64 62
41 43 44 44 45 45 46 47 47 47 46 46 45 44 44 44 45 47 48 49 47 46 45 45 44 43 41 39 38 38 39 42 45 47 50 52 53 56 60 63 64 64 64
43 44 45 45 45 45 46 46 47 47 46 45 44 44 44 44 45 47 48 47 45 44 43 42 40 37 34 32 31 30 31 34 38 42 45 48 49 50 53 58 61 63 64
43 44 45 46 46 46 46 47 47 47 46 45 44 43 43 45 45 46 46 44 42 41 40 38 35 33 30 27 25 24 24 26 30 35 40 44 44 45 47 51 55 59 61
44 45 46 47 47 47 46 47 47 47 46 44 43 43 43 44 45 46 44 42 40 39 38 36 32 29 26 23 20 18 19 21 24 28 33 38 40 42 43 45 49 53 57
44 45 46 47 48 48 47 47 47 47 45 44 43 42 43 44 45 44 42 39 38 37 35 33 30 27 23 19 15 13 14 16 20 24 29 33 36 37 39 41 44 48 52
43 45 46 47 48 48 48 48 47 46 45 43 42 41 42 43 44 42 39 38 37 35 32 30 27 23 19 15 10 8 9 13 17 20 25 28 31 33 35 37 39 42 46
43 44 46 47 48 48 49 48 47 46 44 43 42 41 41 42 42 40 38 37 35 32 31 28 24 20 16 12 8 5 7 11 15 19 22 25 27 28 30 33 35 37 41
43 44 45 47 48 49 49 48 47 46 44 43 41 40 41 42 41 39 37 35 33 31 29 26 21 17 14 10 7 3 5 9 13 16 20 22 23 25 26 29 31 33 36
42 43 45 47 48 49 49 48 47 46 44 42 40 40 40 40 40 38 36 34 32 29 27 24 20 15 12 9 5 1 3 7 11 15 19 20 21 22 24 27 29 31 33
Wind_Direction
283 283 284 284 285 286 287 288 290 290 291 291 291 290 290 290 289 288 286 285 283 282 282 283 282 282 283 281 281 275 264 259 256 257 256 251 250 249 248 246 244 240 237
288 289 289 289 289 291 291 291 293 294 294 293 293 292 292 291 290 289 287 285 284 283 282 282 282 280 279 278 276 276 269 263 258 257 255 251 249 248 245 244 242 240 238
296 296 296 295 296 296 295 296 297 297 297 296 295 295 294 293 292 291 289 287 285 283 282 281 280 279 278 276 274 272 271 268 262 257 255 252 249 247 245 243 241 240 238
303 302 301 301 302 301 301 301 301 301 300 300 299 298 297 295 293 292 291 289 286 284 282 280 279 278 277 274 272 269 267 266 264 259 253 250 246 245 244 243 241 239 238
310 309 308 308 308 307 307 307 307 305 304 302 301 300 299 297 295 294 292 290 288 286 284 282 279 277 276 274 271 268 265 263 262 261 256 251 247 244 242 242 240 237 236
318 317 315 314 313 313 313 312 311 310 308 306 304 303 301 299 297 295 294 292 290 289 287 284 281 278 276 273 271 268 265 262 260 260 258 254 250 247 242 240 238 236 233
324 323 322 321 320 318 317 316 314 313 311 308 306 304 302 300 298 296 294 292 291 289 288 286 283 280 277 275 271 268 265 262 259 257 257 255 251 248 243 240 237 235 231
328 327 326 325 323 322 320 319 317 315 313 311 308 304 302 299 297 295 293 291 289 287 286 284 283 281 278 276 273 270 267 262 258 256 256 254 251 249 244 239 236 235 231
329 328 328 328 327 325 323 321 319 318 315 312 309 305 302 299 296 293 292 290 288 286 285 283 281 280 277 275 273 271 268 264 259 255 254 253 251 249 245 239 236 234 230
329 329 328 328 327 326 324 323 321 319 316 313 309 306 302 299 295 292 290 289 288 287 285 283 281 279 277 274 272 269 267 264 260 256 252 251 250 247 245 242 238 233 230
328 328 327 327 326 326 324 324 322 320 317 314 311 308 304 301 297 294 292 290 288 286 285 283 281 278 276 273 271 268 265 262 259 255 251 249 247 246 245 242 239 234 231
327 327 327 327 326 326 325 324 323 321 319 316 313 310 307 304 300 297 295 293 291 289 286 284 281 278 275 272 270 267 264 261 257 253 249 247 245 243 242 240 237 234 230
328 328 328 327 326 326 325 324 323 322 320 318 315 312 309 306 303 301 299 297 294 292 290 287 283 280 276 273 269 266 263 260 256 252 247 244 242 240 239 238 236 233 230
329 329 329 328 327 326 325 324 324 323 322 319 316 313 310 308 306 304 303 301 299 297 294 291 287 283 279 274 269 265 261 258 254 250 246 242 240 238 236 235 234 232 230
330 329 329 328 327 327 326 326 325 325 323 321 319 315 313 311 310 309 307 306 304 302 299 296 292 288 282 276 270 264 260 256 252 248 244 241 238 236 235 233 232 231 229
331 330 330 330 329 328 328 327 327 327 326 323 321 318 316 315 314 313 312 310 309 307 304 300 296 292 287 280 272 266 260 254 250 246 242 239 237 234 233 232 230 229 228
332 332 332 332 332 331 330 329 329 329 327 325 323 321 319 319 317 317 316 315 313 311 308 304 301 297 291 284 276 268 259 252 247 242 239 236 235 233 231 230 229 228 227
336 336 335 335 334 333 332 332 332 331 329 327 325 323 322 322 321 321 320 319 318 316 312 309 306 302 296 288 280 271 260 251 243 238 235 233 233 231 230 228 228 227 227
338 338 337 336 336 335 334 334 333 333 331 329 327 326 325 325 325 324 324 323 321 319 317 315 312 308 301 293 284 273 258 247 240 236 232 229 228 227 227 227 227 226 226
338 338 339 338 338 337 336 336 335 334 333 331 330 328 328 328 328 328 327 327 325 324 323 321 318 314 307 299 289 275 258 245 237 232 227 224 223 223 223 224 225 225 224
339 339 340 340 340 339 338 337 337 336 334 333 332 331 330 331 331 331 331 330 329 329 328 327 324 319 313 306 294 276 257 241 232 226 220 217 218 219 219 220 222 223 223
339 340 340 341 340 340 339 339 338 337 336 335 333 333 333 333 334 334 333 332 332 332 332 332 330 325 320 316 301 275 250 232 222 217 213 212 213 214 215 216 218 221 221
338 339 340 341 341 341 340 340 340 339 338 336 335 335 335 335 336 337 336 336 336 336 336 336 336 333 328 325 312 275 237 219 211 207 206 207 209 210 213 214 215 218 219
337 338 340 341 341 341 341 341 341 340 339 338 337 337 337 338 339 339 339 339 339 338 339 339 340 339 338 335 325 283 231 212 204 200 198 200 202 206 208 209 211 214 216
336 337 338 340 341 341 341 341 342 342 341 340 339 339 340 341 341 342 342 341 340 340 341 342 342 341 340 338 335 307 215 199 193 191 192 194 196 199 201 204 206 208 209
334 336 338 339 340 341 342 342 342 343 342 342 341 340 341 343 344 344 344 343 342 342 342 345 347 346 344 342 341 329 180 177 180 184 186 188 190 194 197 199 201 202 203
Height
5855 5854 5852 5851 5849 5847 5844 5842 5839 5836 5833 5829 5826 5823 5820 5817 5814 5811 5810 5808 5806 5804 5803 5802 5801 5800 5798 5797 5796 5795 5796 5797 5798 5800 5803 5806 5808 5812 5815 5818 5821 5824 5828
5851 5849 5847 5845 5843 5841 5838 5835 5832 5828 5825 5821 5817 5815 5812 5809 5805 5803 5801 5799 5797 5795 5794 5793 5792 5791 5790 5790 5789 5788 5788 5789 5790 5793 5795 5797 5800 5803 5806 5810 5814 5817 5821
5846 5844 5842 5839 5836 5833 5830 5827 5824 5820 5816 5812 5809 5806 5803 5800 5796 5793 5791 5790 5788 5786 5784 5783 5782 5782 5782 5782 5781 5782 5782 5782 5783 5785 5787 5789 5792 5795 5799 5802 5806 5810 5814
5841 5839 5836 5833 5829 5826 5822 5819 5815 5811 5807 5803 5799 5796 5792 5790 5787 5783 5781 5779 5777 5775 5774 5773 5772 5771 5772 5772 5773 5774 5774 5775 5775 5777 5779 5781 5783 5786 5790 5794 5798 5802 5807
5836 5833 5830 5826 5823 5818 5814 5810 5807 5803 5798 5794 5789 5786 5782 5779 5775 5772 5770 5768 5766 5764 5762 5762 5761 5761 5761 5761 5762 5764 5765 5766 5767 5769 5770 5772 5774 5777 5781 5785 5790 5794 5799
5831 5828 5824 5820 5816 5812 5807 5802 5798 5794 5789 5784 5780 5775 5772 5768 5765 5761 5759 5757 5754 5752 5751 5750 5749 5749 5749 5750 5751 5752 5754 5756 5758 5760 5762 5764 5766 5768 5772 5777 5782 5787 5791
5827 5823 5819 5814 5810 5805 5800 5795 5790 5785 5780 5775 5770 5766 5761 5758 5754 5751 5749 5746 5744 5741 5739 5738 5738 5738 5737 5738 5738 5740 5742 5745 5748 5750 5752 5755 5758 5760 5763 5768 5774 5779 5784
5822 5818 5813 5809 5804 5799 5793 5788 5783 5777 5772 5766 5761 5757 5752 5748 5745 5741 5738 5736 5733 5731 5729 5727 5726 5726 5726 5726 5726 5727 5729 5732 5735 5739 5741 5745 5748 5751 5755 5759 5765 5771 5776
5819 5814 5809 5803 5798 5792 5787 5781 5775 5770 5764 5758 5753 5748 5743 5739 5735 5732 5728 5725 5723 5720 5718 5716 5715 5714 5713 5713 5714 5715 5716 5719 5722 5725 5729 5733 5737 5741 5745 5750 5756 5762 5768
5815 5810 5804 5799 5793 5786 5780 5774 5768 5762 5756 5750 5744 5739 5734 5729 5725 5722 5718 5715 5712 5709 5707 5704 5702 5701 5700 5700 5700 5701 5702 5704 5707 5711 5715 5720 5724 5729 5734 5740 5746 5752 5758
5811 5806 5800 5794 5787 5781 5774 5767 5760 5754 5747 5741 5735 5729 5724 5719 5714 5711 5707 5703 5700 5697 5694 5691 5688 5686 5685 5683 5683 5684 5686 5688 5691 5695 5700 5705 5711 5716 5722 5728 5735 5742 5748
5807 5800 5794 5788 5781 5774 5767 5759 5752 5745 5738 5731 5725 5719 5713 5708 5703 5699 5694 5690 5686 5683 5679 5675 5672 5669 5667 5665 5664 5665 5666 5669 5673 5677 5683 5689 5695 5702 5709 5715 5722 5730 5737
5801 5795 5788 5781 5774 5767 5759 5751 5743 5736 5728 5721 5714 5708 5702 5697 5692 5686 5681 5676 5671 5667 5662 5657 5653 5650 5646 5644 5643 5643 5644 5647 5651 5657 5663 5670 5678 5686 5694 5702 5709 5717 5725
5795 5789 5782 5774 5767 5759 5751 5743 5735 5727 5719 5712 5705 5698 5692 5686 5680 5674 5668 5662 5655 5649 5644 5638 5633 5628 5624 5621 5619 5619 5621 5624 5629 5634 5642 5650 5659 5667 5676 5685 5694 5703 5712
5789 5782 5775 5767 5759 5751 5743 5734 5726 5718 5710 5702 5695 5687 5681 5674 5667 5660 5654 5646 5639 5632 5625 5618 5611 5605 5600 5597 5595 5595 5597 5601 5606 5612 5620 5629 5638 5648 5658 5668 5679 5688 5698
5784 5776 5768 5760 5751 5743 5734 5726 5717 5709 5701 5692 5685 5677 5670 5663 5655 5648 5640 5631 5623 5615 5606 5598 5591 5585 5579 5575 5573 5573 5575 5579 5584 5592 5599 5608 5617 5628 5640 5651 5662 5673 5683
5777 5769 5760 5752 5743 5734 5726 5717 5708 5700 5691 5683 5675 5667 5659 5652 5643 5635 5626 5617 5608 5599 5590 5581 5573 5567 5561 5556 5553 5552 5554 5558 5565 5572 5580 5589 5599 5609 5621 5633 5645 5657 5668
5770 5762 5753 5744 5736 5727 5718 5709 5700 5691 5683 5674 5666 5657 5649 5641 5632 5623 5614 5604 5594 5585 5575 5567 5558 5551 5545 5540 5537 5535 5536 5541 5548 5555 5564 5573 5582 5593 5604 5616 5628 5641 5653
5764 5755 5746 5738 5729 5720 5711 5702 5692 5683 5674 5666 5657 5648 5640 5632 5622 5613 5603 5593 5583 5573 5563 5554 5546 5538 5532 5527 5524 5522 5523 5527 5533 5541 5549 5558 5568 5579 5590 5601 5614 5626 5638
5758 5750 5741 5732 5723 5713 5704 5695 5685 5676 5667 5658 5649 5640 5632 5623 5613 5603 5593 5583 5573 5563 5554 5545 5536 5529 5523 5518 5514 5512 5513 5516 5522 5528 5536 5546 5556 5566 5576 5588 5599 5612 5624
5753 5744 5735 5726 5717 5707 5698 5688 5679 5669 5660 5651 5642 5633 5624 5615 5605 5595 5585 5575 5565 5556 5547 5538 5529 5522 5516 5511 5508 5506 5507 5509 5514 5520 5527 5537 5546 5556 5566 5576 5588 5599 5611
5747 5739 5730 5720 5711 5701 5692 5683 5673 5663 5654 5644 5636 5627 5617 5608 5598 5588 5578 5568 5559 5550 5541 5533 5525 5517 5511 5507 5503 5502 5502 5504 5508 5514 5521 5529 5538 5547 5557 5567 5577 5588 5600
5742 5734 5725 5715 5706 5696 5686 5677 5667 5657 5648 5639 5630 5621 5612 5602 5592 5582 5572 5563 5554 5546 5537 5529 5522 5515 5509 5505 5502 5500 5501 5502 5506 5511 5517 5524 5532 5541 5550 5559 5569 5579 5590
5737 5729 5720 5711 5701 5691 5681 5671 5662 5652 5642 5633 5624 5616 5606 5597 5587 5577 5568 5559 5550 5542 5534 5527 5520 5514 5509 5505 5503 5501 5501 5502 5505 5509 5515 5522 5529 5537 5545 5553 5562 5572 5582
5732 5724 5715 5706 5696 5687 5676 5666 5657 5647 5638 5629 5620 5611 5602 5592 5583 5573 5564 5556 5548 5540 5533 5526 5519 5514 5510 5507 5504 5502 5502 5504 5506 5510 5515 5521 5528 5534 5541 5549 5556 5565 5574
5727 5718 5710 5701 5692 5682 5672 5662 5652 5643 5634 5625 5616 5607 5598 5589 5579 5570 5562 5553 5546 5538 5531 5525 5519 5515 5511 5508 5506 5505 5505 5506 5508 5512 5516 5521 5526 5532 5538 5545 5552 5559 5568